Regional Weather Roundup
Issued by NWS

Home | Current Version | Previous Version | Graphics & Text | Print | Product List | Glossary On
Versions: 1 2 3 4 5 6 7 8 9 10 11 12 13 14 15 16 17 18 19 20 21 22 23 24 25 26 27
000
ASUS45 KSLC 202210
RWRUT

UTAH REGIONAL WEATHER ROUNDUP
NATIONAL WEATHER SERVICE SALT LAKE CITY UT
300 PM MST MON FEB 20 2017

UTZ001>011-023>025-202300-

NORTHERN UTAH

CITY           SKY/WX    TMP DP  RH WIND       PRES   REMARKS
BRIGHAM CITY     N/A     52  36  54 S14       29.98F
HILL AFB       CLOUDY    51  34  51 S17       29.98F
LOGAN          CLOUDY    52  36  54 SW6       29.97F
OGDEN          CLOUDY    52  34  50 S20       29.97F
SALT LAKE CITY CLOUDY    54  34  46 S26G36    29.96S
TOOELE VALLEY  CLOUDY    57  37  47 S35G45    29.95F
WENDOVER       PTSUNNY   59  37  44 SW20      29.92F
HEBER CITY     CLOUDY    50  30  46 SW10G18   30.04R
WEST JORDAN    CLOUDY    56  43  60 SE25G31   29.98F

$$

UTZ011>015-024>027-202300-

CENTRAL/NORTHEAST UTAH

CITY           SKY/WX    TMP DP  RH WIND       PRES   REMARKS
PROVO AIRPORT  CLOUDY    54  33  45 S5        30.05S
MOAB/CANYONLAN MOSUNNY   54  36  50 SW6       30.14F
DELTA          CLOUDY    54  36  50 S30G37    30.05S
PRICE          CLOUDY    41  35  79 CALM      30.16F
ROOSEVELT      SUNNY     45  34  65 NE3       30.14F
VERNAL         CLOUDY    45  35  68 CALM      30.12F

$$

UTZ013>016-019>022-027-202300-

SOUTHERN UTAH

CITY           SKY/WX    TMP DP  RH WIND       PRES   REMARKS
BRYCE CANYON   CLOUDY    36  33  89 SE10      30.23R WCI  28
CEDAR CITY     PTSUNNY   51  37  58 SW18G25   30.13F
MILFORD        CLOUDY    50  38  63 SW25G32   30.09F
ST GEORGE      CLOUDY    55  45  68 NE6       30.18F
HANKSVILLE     MOSUNNY   55  36  47 S3        30.16F
BLANDING       PTSUNNY   50  33  50 SW12G17   30.30F

$$

REGIONAL REPORTS     COLORADO/ARIZONA

CITY           SKY/WX    TMP DP  RH WIND       PRES   REMARKS
CRAIG, CO      CLOUDY    47  30  51 SW14      30.14F
GRAND JUNCTION SUNNY     52  38  58 NW7       30.15F
RIFLE, CO      CLOUDY    51  34  52 NW8       30.15F
MONTROSE, CO   SUNNY     53  28  38 N5        30.18F
CORTEZ, CO     MOSUNNY   49  33  54 CALM      30.24S
COLORADO CITY  CLOUDY    52  41  66 S8        30.24F
PAGE, AZ       MOSUNNY   55  35  47 N6        30.20F
GRAND CANYON   CLOUDY    45  37  73 W10       30.27F
KINGMAN, AZ    MOSUNNY   59  34  39 SW14G21   30.23F
FLAGSTAFF, AZ  MOSUNNY   45  36  70 SW5       30.28F

$$

REGIONAL REPORTS    NEVADA/IDAHO/WYOMING

CITY           SKY/WX    TMP DP  RH WIND       PRES   REMARKS
LAS VEGAS, NV  PTSUNNY   66  45  46 S12G23    30.09F
ELY, NY        CLOUDY    44  35  70 SE28G40   30.01F
ELKO, NV       LGT RAIN  46  40  79 SW12      29.93R
POCATELLO, ID  CLOUDY    43  37  79 S28G39    29.90F
BURLEY, ID     CLOUDY    50  36  58 S28G33    29.84R
FORT BRIDGER,  MOCLDY    45  29  52 CALM      30.03S
EVANSTON, WY   CLOUDY    39  28  64 W14       30.01S WCI  31
ROCK SPRINGS,  CLOUDY    43  30  60 S9        30.03R
KEMMERER, WY     N/A     37  30  75 SW10      30.02S WCI  30

$$




USA.gov is the U.S. government's official web portal to all federal, state and local government web resources and services.